K7ZQU-7 Weather Reports


Display with metric or nautical units.
time (UTC)temp
F
wind
direction
speed
MPH
gust
MPH
rain 1hr
in
rain 24hr
in
rain mn
in
humidity
%
barometer
mb
20260510224957 59 342 6.0 4.0 0.00 0.00 0.00 56 1018.2
20260510224458 58 315 4.0 6.0 0.00 0.00 0.00 58 1018.3
20260510223957 58 291 8.0 8.0 0.00 0.00 0.00 57 1018.3
20260510223458 58 301 5.0 6.0 0.00 0.00 0.00 60 1018.2
20260510222959 58 300 6.0 12.0 0.00 0.00 0.00 60 1018.4
20260510222500 58 329 7.0 7.0 0.00 0.00 0.00 61 1018.3
20260510221500 59 308 6.0 5.0 0.00 0.00 0.00 59 1018.3
20260510221001 59 304 7.0 8.0 0.00 0.00 0.00 59 1018.3
20260510220502 60 326 7.0 6.0 0.00 0.00 0.00 58 1018.4
20260510215505 60 259 6.0 6.0 0.00 0.00 0.00 57 1018.5
20260510215003 59 330 9.0 6.0 0.00 0.00 0.00 57 1018.4
20260510213506 59 290 5.0 8.0 0.00 0.00 0.00 60 1018.5
20260510212506 60 305 8.0 5.0 0.00 0.00 0.00 56 1018.4
20260510212007 60 280 9.0 8.0 0.00 0.00 0.00 55 1018.3
20260510210511 61 326 7.0 6.0 0.00 0.00 0.00 52 1018.2
20260510205510 61 300 3.0 3.0 0.00 0.00 0.00 54 1018.1
20260510204513 62 309 4.0 3.0 0.00 0.00 0.00 51 1018.1
20260510204014 63 295 5.0 5.0 0.00 0.00 0.00 48 1017.8
20260510203535 63 270 5.0 7.0 0.00 0.00 0.00 48 1017.8
20260510203013 63 280 3.0 11.0 0.00 0.00 0.00 50 1017.8
20260510202515 63 305 8.0 7.0 0.00 0.00 0.00 51 1017.8
20260510202016 63 287 5.0 8.0 0.00 0.00 0.00 51 1017.8
20260510201517 62 248 5.0 4.0 0.00 0.00 0.00 53 1017.8
20260510201015 62 311 5.0 4.0 0.00 0.00 0.00 53 1017.8
20260510200018 63 297 6.0 5.0 0.00 0.00 0.00 51 1017.7
20260510194518 63 257 6.0 2.0 0.00 0.00 0.00 53 1017.6
20260510193520 63 294 5.0 6.0 0.00 0.00 0.00 56 1017.7
20260510193022 62 314 7.0 6.0 0.00 0.00 0.00 55 1017.6
20260510192021 62 269 3.0 3.0 0.00 0.00 0.00 54 1017.7
20260510191522 62 266 2.0 4.0 0.00 0.00 0.00 56 1017.6
20260510191024 61 290 3.0 4.0 0.00 0.00 0.00 54 1017.5
20260510190525 61 301 5.0 4.0 0.00 0.00 0.00 55 1017.5
20260510190026 61 239 5.0 5.0 0.00 0.00 0.00 54 1017.6
20260510185025 61 305 3.0 5.0 0.00 0.00 0.00 54 1017.5
20260510184526 61 280 3.0 3.0 0.00 0.00 0.00 55 1017.5
20260510184027 61 291 6.0 4.0 0.00 0.00 0.00 54 1017.3
20260510183027 61 314 4.0 2.0 0.00 0.00 0.00 54 1017.2
20260510182528 61 281 2.0 9.0 0.00 0.00 0.00 57 1017.2
20260510181530 61 312 4.0 8.0 0.00 0.00 0.00 58 1017.0
20260510181031 60 309 3.0 4.0 0.00 0.00 0.00 58 1016.9
20260510180530 60 309 4.0 6.0 0.00 0.00 0.00 57 1016.9
20260510175532 59 242 3.0 0.0 0.00 0.00 0.00 60 1016.9
20260510175033 59 342 5.0 3.0 0.00 0.00 0.00 61 1016.9
20260510174534 58 342 2.0 2.0 0.00 0.00 0.00 63 1016.7
20260510174032 58 21 2.0 3.0 0.00 0.00 0.00 64 1016.9
20260510173534 57 323 1.0 1.0 0.00 0.00 0.00 66 1016.7
20260510173035 57 290 1.0 7.0 0.00 0.00 0.00 66 1016.7
20260510172536 57 240 2.0 1.0 0.00 0.00 0.00 64 1016.7
20260510172037 57 243 3.0 2.0 0.00 0.00 0.00 65 1016.6
20260510171535 57 269 1.0 2.0 0.00 0.00 0.00 65 1016.6
20260510171036 56 287 3.0 3.0 0.00 0.00 0.00 67 1016.6
20260510170537 56 270 1.0 0.0 0.00 0.00 0.00 68 1016.5
20260510170038 55 307 3.0 4.0 0.00 0.00 0.00 68 1016.5
20260510165539 55 288 3.0 0.0 0.00 0.00 0.00 68 1016.6
20260510165038 55 224 2.0 2.0 0.00 0.00 0.00 68 1016.5
20260510164539 55 221 4.0 3.0 0.00 0.00 0.00 70 1016.6
20260510164040 55 301 3.0 4.0 0.00 0.00 0.00 71 1016.4
20260510163541 55 326 5.0 3.0 0.00 0.00 0.00 70 1016.4
20260510163042 54 323 4.0 3.0 0.00 0.00 0.00 72 1016.2
20260510162540 54 343 3.0 3.0 0.00 0.00 0.00 72 1016.2
20260510162041 54 309 5.0 5.0 0.00 0.00 0.00 71 1016.3
20260510161043 54 316 1.0 3.0 0.00 0.00 0.00 72 1015.8
20260510160544 54 316 4.0 3.0 0.00 0.00 0.00 71 1015.8
20260510160043 54 311 1.0 1.0 0.00 0.00 0.00 72 1015.8
20260510155544 54 297 0.0 0.0 0.00 0.00 0.00 73 1015.7
20260510155045 53 278 0.0 0.0 0.00 0.00 0.00 75 1015.8
20260510154546 53 311 1.0 2.0 0.00 0.00 0.00 76 1015.8
20260510154047 53 319 0.0 0.0 0.00 0.00 0.00 76 1015.7
20260510153545 53 300 1.0 0.0 0.00 0.00 0.00 76 1015.7
20260510153046 52 298 1.0 0.0 0.00 0.00 0.00 75 1015.7
20260510152547 52 316 1.0 1.0 0.00 0.00 0.00 76 1015.7
20260510152048 52 285 1.0 0.0 0.00 0.00 0.00 76 1015.7
20260510150049 50 287 0.0 0.0 0.00 0.00 0.00 80 1015.8
20260510145550 49 319 2.0 2.0 0.00 0.00 0.00 81 1015.8
20260510145051 49 298 0.0 0.0 0.00 0.00 0.00 81 1015.7
20260510144051 48 288 0.0 0.0 0.00 0.00 0.00 81 1015.8
20260510143552 48 308 0.0 0.0 0.00 0.00 0.00 81 1015.8
20260510143053 48 314 2.0 1.0 0.00 0.00 0.00 80 1015.8
20260510142554 48 315 2.0 2.0 0.00 0.00 0.00 82 1015.8
20260510142052 48 316 2.0 2.0 0.00 0.00 0.00 82 1015.7
20260510141553 47 323 2.0 1.0 0.00 0.00 0.00 83 1015.6
20260510141054 47 284 1.0 0.0 0.00 0.00 0.00 84 1015.4
20260510140555 46 259 0.0 0.0 0.00 0.00 0.00 84 1015.4
20260510140056 46 270 0.0 1.0 0.00 0.00 0.00 84 1015.6
20260510135554 46 264 0.0 0.0 0.00 0.00 0.00 84 1015.7
20260510135055 46 273 0.0 1.0 0.00 0.00 0.00 84 1015.7
20260510134556 46 253 1.0 0.0 0.00 0.00 0.00 84 1015.7
20260510134057 46 293 1.0 0.0 0.00 0.00 0.00 85 1015.7
20260510133558 45 297 1.0 0.0 0.00 0.00 0.00 85 1015.7
20260510133056 45 330 2.0 2.0 0.00 0.00 0.00 85 1015.6
20260510132557 45 295 0.0 0.0 0.00 0.00 0.00 85 1015.6
20260510132057 45 295 0.0 0.0 0.00 0.00 0.00 86 1015.6
20260510131558 44 255 0.0 0.0 0.00 0.00 0.00 86 1015.6
20260510131059 44 308 0.0 0.0 0.00 0.00 0.00 87 1015.6
20260510130558 44 308 0.0 0.0 0.00 0.00 0.00 88 1015.6
20260510130058 43 308 0.0 0.0 0.00 0.00 0.00 88 1015.7
20260510125559 43 308 0.0 0.0 0.00 0.00 0.00 90 1015.4
20260510125100 43 308 0.0 0.0 0.00 0.00 0.00 89 1015.6
20260510124601 42 308 0.0 0.0 0.00 0.00 0.00 90 1015.7
20260510124059 42 308 0.0 0.0 0.00 0.00 0.00 90 1015.6
20260510123101 42 308 0.0 0.0 0.00 0.00 0.00 90 1015.6
20260510122602 41 308 0.0 0.0 0.00 0.00 0.00 90 1015.7
20260510122103 41 308 0.0 0.0 0.00 0.00 0.00 91 1015.7
20260510121601 41 308 0.0 0.0 0.00 0.00 0.00 91 1015.8
20260510121102 41 308 0.0 0.0 0.00 0.00 0.00 91 1015.8
20260510120603 41 308 0.0 0.0 0.00 0.00 0.00 90 1015.7
20260510120104 40 308 0.0 0.0 0.00 0.00 0.00 89 1015.7
20260510115605 41 308 0.0 0.0 0.00 0.00 0.00 89 1015.7
20260510115103 41 308 0.0 0.0 0.00 0.00 0.00 88 1015.7
20260510114604 41 308 0.0 0.0 0.00 0.00 0.00 86 1015.8
20260510114105 42 308 0.0 0.0 0.00 0.00 0.00 86 1015.8
20260510113606 42 308 0.0 0.0 0.00 0.00 0.00 85 1015.7
20260510113107 42 308 0.0 0.0 0.00 0.00 0.00 85 1015.7
20260510112605 43 308 0.0 0.0 0.00 0.00 0.00 87 1015.7
20260510112106 43 308 0.0 0.0 0.00 0.00 0.00 88 1015.7
20260510111607 43 308 0.0 0.0 0.00 0.00 0.00 87 1015.7
20260510111108 43 308 0.0 0.0 0.00 0.00 0.00 87 1015.7
20260510110609 43 308 0.0 0.0 0.00 0.00 0.00 88 1015.7
20260510110107 42 308 0.0 0.0 0.00 0.00 0.00 88 1015.8
20260510105608 42 308 0.0 0.0 0.00 0.00 0.00 89 1015.8
20260510105109 42 308 0.0 0.0 0.00 0.00 0.00 90 1015.8
20260510104610 42 308 0.0 0.0 0.00 0.00 0.00 89 1015.9
20260510104111 41 308 0.0 0.0 0.00 0.00 0.00 90 1015.9
20260510103609 41 308 0.0 0.0 0.00 0.00 0.00 91 1015.9
20260510103110 40 308 0.0 0.0 0.00 0.00 0.00 90 1015.9
20260510102612 40 308 0.0 0.0 0.00 0.00 0.00 89 1016.0
20260510102112 40 308 0.0 0.0 0.00 0.00 0.00 90 1015.9
20260510101613 40 308 0.0 0.0 0.00 0.00 0.00 88 1016.0
20260510101111 40 308 0.0 0.0 0.00 0.00 0.00 88 1015.9
20260510100613 40 308 0.0 0.0 0.00 0.00 0.00 87 1015.9
20260510100114 40 308 0.0 0.0 0.00 0.00 0.00 87 1015.9
20260510095614 40 308 0.0 0.0 0.00 0.00 0.00 88 1015.9
20260510095116 40 308 0.0 0.0 0.00 0.00 0.00 88 1015.9
20260510094614 40 308 0.0 0.0 0.00 0.00 0.00 88 1015.9
20260510094115 40 308 0.0 0.0 0.00 0.00 0.00 89 1016.0
20260510093616 40 308 0.0 0.0 0.00 0.00 0.00 88 1016.2
20260510093117 40 308 0.0 0.0 0.00 0.00 0.00 89 1016.3
20260510092618 40 308 0.0 0.0 0.00 0.00 0.00 88 1016.5
20260510092116 40 308 0.0 0.0 0.00 0.00 0.00 88 1016.5
20260510091617 39 308 0.0 0.0 0.00 0.00 0.00 89 1016.5
20260510091118 39 308 0.0 0.0 0.00 0.00 0.00 87 1016.5
20260510090619 40 308 0.0 0.0 0.00 0.00 0.00 86 1016.6
20260510090120 40 308 0.0 0.0 0.00 0.00 0.00 85 1016.6
20260510085619 40 308 0.0 0.0 0.00 0.00 0.00 85 1016.6
20260510085119 40 308 0.0 0.0 0.00 0.00 0.00 87 1016.7
20260510084620 40 308 0.0 0.0 0.00 0.00 0.00 84 1016.7
20260510084121 40 308 0.0 0.0 0.00 0.00 0.00 84 1016.6
20260510083622 40 308 0.0 0.0 0.00 0.00 0.00 84 1016.7
20260510082122 41 308 0.0 0.0 0.00 0.00 0.00 84 1016.9
20260510081623 41 308 0.0 0.0 0.00 0.00 0.00 83 1017.0
20260510080623 41 308 0.0 0.0 0.00 0.00 0.00 82 1016.9
20260510080124 41 308 0.0 0.0 0.00 0.00 0.00 82 1017.0
20260510075625 41 308 0.0 0.0 0.00 0.00 0.00 82 1016.9
20260510075125 41 308 0.0 0.0 0.00 0.00 0.00 82 1017.0
20260510074627 41 308 0.0 0.0 0.00 0.00 0.00 82 1017.0
20260510073626 42 308 0.0 0.0 0.00 0.00 0.00 83 1017.1
20260510073127 42 308 0.0 0.0 0.00 0.00 0.00 82 1017.2
20260510072628 42 308 0.0 0.0 0.00 0.00 0.00 82 1017.2
20260510072129 42 308 0.0 0.0 0.00 0.00 0.00 82 1017.2
20260510071627 42 308 0.0 0.0 0.00 0.00 0.00 83 1017.2
20260510071128 42 308 0.0 0.0 0.00 0.00 0.00 83 1017.2
20260510070629 43 308 0.0 0.0 0.00 0.00 0.00 81 1017.2
20260510065632 43 308 0.0 0.0 0.00 0.00 0.00 81 1017.2
20260510065130 43 308 0.0 0.0 0.00 0.00 0.00 83 1017.1
20260510064631 43 308 0.0 0.0 0.00 0.00 0.00 80 1017.2
20260510064132 43 308 0.0 0.0 0.00 0.00 0.00 80 1017.3
20260510063633 43 308 0.0 0.0 0.00 0.00 0.00 81 1017.3
20260510063134 43 308 0.0 0.0 0.00 0.00 0.00 79 1017.3
20260510062632 43 308 0.0 0.0 0.00 0.00 0.00 78 1017.5
20260510062133 43 308 0.0 0.0 0.00 0.00 0.00 78 1017.5
20260510061634 43 308 0.0 0.0 0.00 0.00 0.00 77 1017.5
20260510061136 44 308 0.0 0.0 0.00 0.00 0.00 76 1017.6
20260510060637 44 308 0.0 0.0 0.00 0.00 0.00 75 1017.6
20260510060135 44 308 0.0 0.0 0.00 0.00 0.00 75 1017.6
20260510055636 45 308 0.0 0.0 0.00 0.00 0.00 75 1017.6
20260510055137 45 308 0.0 0.0 0.00 0.00 0.00 75 1017.6
20260510054139 45 308 0.0 0.0 0.00 0.00 0.00 75 1017.7
20260510053139 45 308 0.0 0.0 0.00 0.00 0.00 73 1017.8
20260510052640 46 308 0.0 0.0 0.00 0.00 0.00 74 1017.9
20260510052141 46 308 0.0 0.0 0.00 0.00 0.00 72 1017.8
20260510051642 46 308 0.0 0.0 0.00 0.00 0.00 71 1017.9
20260510051140 47 308 0.0 0.0 0.00 0.00 0.00 69 1017.9
20260510050641 47 308 0.0 0.0 0.00 0.00 0.00 68 1017.9
20260510050143 47 308 0.0 0.0 0.00 0.00 0.00 68 1017.9
20260510045145 48 308 0.0 0.0 0.00 0.00 0.00 67 1018.1
20260510044643 49 308 0.0 0.0 0.00 0.00 0.00 65 1018.2
20260510044144 49 308 0.0 0.0 0.00 0.00 0.00 65 1018.2
20260510043645 50 308 0.0 0.0 0.00 0.00 0.00 64 1018.2
20260510043147 50 308 0.0 0.0 0.00 0.00 0.00 63 1018.2
20260510042648 51 308 0.0 0.0 0.00 0.00 0.00 62 1018.1
20260510042146 51 308 0.0 0.0 0.00 0.00 0.00 60 1018.1
20260510041148 52 308 0.0 0.0 0.00 0.00 0.00 58 1017.9
20260510040650 53 308 0.0 0.0 0.00 0.00 0.00 57 1018.1
20260510035649 54 308 0.0 0.0 0.00 0.00 0.00 54 1017.9
20260510035150 55 308 0.0 0.0 0.00 0.00 0.00 53 1017.8
20260510034652 55 308 0.0 0.0 0.00 0.00 0.00 53 1017.8
20260510034153 56 308 0.0 0.0 0.00 0.00 0.00 51 1017.9
20260510033654 57 308 0.0 0.0 0.00 0.00 0.00 50 1017.8
20260510032653 58 308 0.0 0.0 0.00 0.00 0.00 48 1017.8
20260510031655 59 308 0.0 0.0 0.00 0.00 0.00 46 1017.8
20260510031157 60 308 0.0 0.0 0.00 0.00 0.00 44 1017.7
20260510030655 60 308 0.0 0.0 0.00 0.00 0.00 44 1017.8
20260510030156 61 308 0.0 0.0 0.00 0.00 0.00 43 1017.7
20260510025657 61 308 0.0 0.0 0.00 0.00 0.00 42 1017.7
20260510025158 62 308 0.0 0.0 0.00 0.00 0.00 41 1017.7
20260510024700 62 308 0.0 0.0 0.00 0.00 0.00 39 1017.8
20260510024158 62 308 0.0 0.0 0.00 0.00 0.00 39 1017.7
20260510023659 62 308 0.0 0.0 0.00 0.00 0.00 39 1017.8
20260510023200 63 308 0.0 0.0 0.00 0.00 0.00 38 1017.8
20260510022701 63 314 0.0 0.0 0.00 0.00 0.00 38 1017.8
20260510022202 64 301 1.0 5.0 0.00 0.00 0.00 37 1017.8
20260510021701 64 305 2.0 1.0 0.00 0.00 0.00 37 1017.8
20260510021202 65 319 2.0 3.0 0.00 0.00 0.00 36 1017.9
20260510020703 65 316 3.0 4.0 0.00 0.00 0.00 34 1017.9
20260510020204 66 336 2.0 4.0 0.00 0.00 0.00 33 1017.9
20260510015705 66 314 2.0 1.0 0.00 0.00 0.00 33 1017.9
20260510015203 66 315 4.0 4.0 0.00 0.00 0.00 31 1018.1
20260510014705 66 323 2.0 2.0 0.00 0.00 0.00 30 1017.9
20260510014206 67 319 3.0 5.0 0.00 0.00 0.00 29 1017.9
20260510013707 67 311 3.0 5.0 0.00 0.00 0.00 27 1017.9
20260510013208 67 294 1.0 3.0 0.00 0.00 0.00 28 1018.1
20260510012207 68 301 0.0 1.0 0.00 0.00 0.00 29 1018.2
20260510011708 68 302 1.0 1.0 0.00 0.00 0.00 27 1018.1
20260510011209 68 326 4.0 3.0 0.00 0.00 0.00 26 1018.1
20260510010710 68 333 2.0 4.0 0.00 0.00 0.00 27 1018.1
20260510010209 68 270 5.0 7.0 0.00 0.00 0.00 27 1018.1
20260510005710 69 281 4.0 2.0 0.00 0.00 0.00 26 1018.2
20260510005211 69 250 2.0 1.0 0.00 0.00 0.00 25 1018.1
20260510004712 69 302 3.0 3.0 0.00 0.00 0.00 24 1018.2
20260510004213 69 183 4.0 0.0 0.00 0.00 0.00 24 1018.2
20260510003711 69 329 4.0 4.0 0.00 0.00 0.00 24 1018.1
20260510003213 69 323 3.0 4.0 0.00 0.00 0.00 24 1017.9
20260510002714 68 302 2.0 3.0 0.00 0.00 0.00 24 1017.9
20260510002215 68 73 3.0 1.0 0.00 0.00 0.00 25 1018.1
20260510001716 68 188 0.0 1.0 0.00 0.00 0.00 23 1018.1
20260510001214 68 207 2.0 0.0 0.00 0.00 0.00 22 1018.1
20260510000715 68 49 2.0 0.0 0.00 0.00 0.00 22 1018.1
20260510000218 68 322 1.0 4.0 0.00 0.00 0.00 25 1017.9
20260509235718 67 197 0.0 0.0 0.00 0.00 0.00 24 1017.9
20260509235219 67 124 1.0 0.0 0.00 0.00 0.00 23 1018.1
20260509234717 68 100 3.0 4.0 0.00 0.00 0.00 23 1018.1
20260509234218 68 149 2.0 0.0 0.00 0.00 0.00 23 1018.2
20260509233719 67 221 2.0 0.0 0.00 0.00 0.00 23 1018.2
20260509233220 67 70 1.0 3.0 0.00 0.00 0.00 22 1018.2
20260509232722 68 90 2.0 4.0 0.00 0.00 0.00 22 1018.3
20260509232220 68 91 3.0 4.0 0.00 0.00 0.00 23 1018.2
20260509231721 68 37 1.0 5.0 0.00 0.00 0.00 23 1018.3
20260509231222 67 31 2.0 3.0 0.00 0.00 0.00 24 1018.4
20260509230723 67 346 2.0 2.0 0.00 0.00 0.00 24 1018.4
20260509230224 68 80 1.0 0.0 0.00 0.00 0.00 23 1018.6